Location: Trnav� Hora
(48.5898°N, 18.9543°E)
Time: 07:18:10
(UTC+00:00)

Daily predictions for brighter satellites

Satellite Brightness Start Highest point End
(mag) Time Altitude Azimuth Time Altitude Azimuth Time Altitude Azimuth
ARGOS 4.2 18:37:40 10° S 18:42:51 48° W 18:48:04 10° NNW
CZ-2C R/B 2.6 18:37:41 10° NNE 18:42:53 72° ESE 18:48:04 10° S
Cosmos 407 Rocket 4.5 18:40:07 10° SSE 18:44:32 27° E 18:48:58 10° NE
Meteor 1-4 Rocket 4.3 18:43:03 10° NNE 18:45:24 17° ENE 18:47:44 10° ESE
SL-8 R/B 4.2 18:41:04 10° W 18:45:46 53° SSW 18:50:28 10° SE
Terra 4.0 18:44:52 10° ENE 18:46:20 11° NE 18:47:48 10° NE
Meteor 1-27 Rocket 4.4 18:42:18 10° N 18:47:56 43° ENE 18:53:34 10° SE
USA 186 3.5 18:46:31 10° SSW 18:48:24 22° W 18:50:16 10° NW
Meteor 1-10 Rocket 4.3 18:42:53 10° N 18:48:32 66° ENE 18:54:14 10° SSE
FREGAT/IRIS 4.2 18:50:04 10° SSW 18:52:27 30° W 18:54:51 10° NNW
Cosmos 2218 Rocket 4.3 18:48:16 10° SSW 18:54:26 73° W 19:00:36 10° N
Cosmos 1782 3.9 18:53:02 10° NNW 18:56:55 47° W 19:00:47 10° SSW
H-2A R/B 4.1 18:53:15 10° SSW 18:57:37 27° W 19:01:56 10° NW
SPOT 5 4.5 18:57:19 10° E 19:00:01 16° ENE 19:02:43 10° NNE
Cosmos 1980 Rocket 3.1 18:54:55 10° NNW 19:00:11 37° NE 19:05:19 10° ESE
Cosmos 1805 Rocket 3.7 18:56:20 10° S 19:00:40 57° E 19:05:04 10° NNE
ERBS 3.1 18:59:31 10° WSW 19:02:47 55° NNW 19:06:04 10° NE
SPOT 1/Viking Rocket 4.5 18:59:21 10° SE 19:04:00 34° ENE 19:08:42 10° N
DMSP B5D2-2 4.2 18:59:35 10° NNE 19:04:51 81° WNW 19:10:04 10° SSW
ATLAS 5 CENTAUR R/B 2.7 19:03:17 10° NW 19:08:54 65° SW 19:15:27 10° SSE
Cosmos 1140 Rocket 4.1 19:05:37 10° SSE 19:10:18 34° ESE 19:15:02 10° NE
SL-4 R/B 2.8 19:07:23 10° SSW 19:10:44 26° SE 19:13:55 10° E
Genesis I 4.3 19:09:06 10° NNW 19:12:40 33° NE 19:15:51 12° ESE
Cosmos 1697 Rocket 2.7 19:10:32 10° NNW 19:16:12 77° ENE 19:21:20 12° SSE
Cosmos 2228 Rocket 4.0 19:12:57 10° NNW 19:17:14 49° W 19:21:28 10° SSW
Cosmos 1833 Rocket 2.8 19:12:00 10° S 19:17:27 54° ESE 19:22:56 10° NE
CENTAUR R/B 4.0 19:17:41 12° ESE 19:18:54 13° ESE 19:21:28 10° ENE
Cosmos 389 Rocket 2.9 19:16:57 10° NNW 19:20:22 61° W 19:23:46 10° S
SPOT 3 Rocket 4.1 19:16:23 10° S 19:21:32 60° WSW 19:26:41 10° NNW
Cosmos 1812 2.9 19:18:24 10° NNW 19:22:15 74° W 19:26:04 10° S
Cosmos 1633 Rocket 3.6 19:18:11 10° SSE 19:22:19 40° E 19:26:28 10° NNE
Cosmos 2251 Rocket 4.5 19:19:22 10° SW 19:24:30 52° WNW 19:29:42 10° NNE
Cosmos 1867 4.4 19:20:10 10° S 19:24:46 29° ESE 19:29:25 10° NE
Cosmos 1656 4.3 19:22:20 10° NW 19:27:40 53° WSW 19:33:01 10° S
Cosmos 1707 Rocket 3.5 19:27:21 10° N 19:31:45 87° E 19:35:44 12° S
Cosmos 220 Rocket 4.5 19:28:00 10° NNW 19:32:09 57° WSW 19:36:05 11° S
Resurs 01 Rocket 2.1 19:28:18 10° S 19:32:39 60° W 19:37:03 10° NNW
Landsat 7 3.9 19:30:06 14° SSE 19:34:06 69° ENE 19:38:51 10° N
FALCON 9 DEB 3.9 19:35:49 10° SSW 19:38:54 30° SE 19:41:53 11° E
Cosmos 1441 Rocket 3.6 19:35:08 10° SSW 19:38:54 63° WNW 19:42:39 10° N
Cosmos 1934 Rocket 4.1 19:33:16 10° S 19:39:32 65° E 19:45:50 10° NNE
Cosmos 614 Rocket 4.1 19:37:42 10° SSW 19:42:52 78° WNW 19:48:06 10° NNE
Cosmos 2360 4.2 19:37:24 10° NNW 19:43:11 88° WSW 19:47:32 18° SSE
NOSS 3-2 (A) 4.0 19:38:54 10° S 19:43:52 32° ESE 19:49:23 10° NE
IGS 5A 3.4 19:41:07 17° SSE 19:44:16 85° ENE 19:48:26 10° NNW
Cosmos 1470 Rocket 4.1 19:42:24 20° SSE 19:44:58 39° E 19:49:04 10° NNE
USA 267 3.2 19:39:50 10° NE 19:46:25 80° SE 19:52:59 10° SW
NOSS 3-2 (C) 4.4 19:48:31 20° SE 19:50:00 22° ESE 19:54:40 10° ENE
GP-B 3.1 19:45:34 10° N 19:50:00 69° E 19:53:13 18° S
SWAS 4.4 19:46:01 10° SSW 19:50:19 77° ESE 19:54:40 10° NNE
Cosmos 1821 Rocket 4.4 19:46:45 10° SSW 19:52:50 66° WNW 19:59:03 10° N
COSMOS 2406 3.8 19:49:48 10° SW 19:55:30 61° WNW 20:01:12 10° NNE
Meteor 2-20 Rocket 4.4 19:49:27 10° N 19:55:40 82° E 20:00:27 18° SSE
Cosmos 921 Rocket 3.3 19:51:58 10° N 19:56:06 48° ENE 19:58:03 27° SE
Shenzhou-11 Module 3.9 19:54:52 10° SW 19:55:30 13° SW 19:55:30 13° SW
Cosmos 1862 Rocket 3.5 19:53:47 10° N 19:58:18 82° E 20:01:01 23° SSE
SL-16 R/B 3.3 19:53:46 10° NNW 19:58:55 34° NE 20:02:26 18° ESE
ERS-1 Rocket 3.0 19:56:09 23° SSE 19:59:15 65° ENE 20:04:15 10° N
Lacrosse 5 2.6 19:57:36 10° NW 20:02:32 48° NNE 20:06:21 16° E
Cosmos 2369 4.2 19:58:18 10° NW 20:03:54 55° WSW 20:08:05 18° S
Sich 1 4.2 20:00:54 10° SSW 20:05:07 44° WNW 20:09:24 10° N
SAR-Lupe-2 3.9 20:03:15 10° NNE 20:06:44 45° E 20:07:36 37° SE
BREEZE-M DEB (TANK) 1.4 20:07:27 10° W 20:09:50 75° N 20:09:54 73° NE
Cosmos 2082 Rocket 2.1 20:04:48 10° SSW 20:10:29 82° ESE 20:16:12 10° NNE
Cosmos 1954 Rocket 4.0 20:06:52 10° SSW 20:12:09 70° ESE 20:17:28 10° NNE
NOSS 2 (A) 4.5 20:09:37 10° NNW 20:12:14 51° NE 20:12:18 51° NE
Cosmos 2123 Rocket 4.3 20:06:43 10° NNW 20:12:52 67° W 20:18:06 15° S
Cosmos 2278 3.9 20:07:34 10° NNW 20:13:15 68° WSW 20:16:44 24° S
Spot 2 Rocket 4.1 20:11:24 16° S 20:15:21 54° W 20:20:23 10° NNW
Meteor 1-4 Rocket 3.8 20:17:22 10° NNW 20:20:36 35° W 20:22:26 20° SSW
Cosmos 2322 Rocket 3.1 20:16:06 10° NNW 20:21:26 39° NE 20:24:25 23° ESE
CARTOSAT-1 3.6 20:20:05 31° S 20:22:08 79° WSW 20:26:29 10° NNW
USA 234 3.4 20:18:45 26° SE 20:22:36 65° SW 20:29:07 10° WNW
Cosmos 1184 Rocket 3.1 20:21:01 27° SSW 20:22:38 63° WNW 20:25:56 10° N
Terra 1.8 20:21:08 33° SE 20:23:12 69° ENE 20:27:57 10° N
Cosmos 1933 Rocket 3.5 20:24:16 33° S 20:26:09 72° E 20:30:34 10° NNE
Cosmos 1605 Rocket 3.9 20:21:08 16° S 20:26:11 90° WNW 20:32:19 10° N
Cosmos 407 Rocket 4.5 20:21:08 10° SW 20:26:17 49° WNW 20:31:26 10° NNE
Meteor 1-20 Rocket 4.3 20:23:25 17° S 20:28:03 90° SSE 20:33:58 10° NNE
Cosmos 1238 Rocket 2.0 20:28:02 61° SSW 20:28:29 81° W 20:31:26 10° N
Okean 1 3.2 20:26:12 10° N 20:30:16 84° E 20:31:27 45° SSE
Cosmos 1602 3.6 20:31:37 45° S 20:32:43 77° E 20:36:40 10° NNE
ATLAS 3B R/B 4.0 20:34:00 18° E 20:34:00 18° E 20:37:33 10° ENE
Cosmos 1437 Rocket 2.7 20:31:02 10° N 20:34:51 63° ENE 20:35:27 53° ESE
Cosmos 2360 Rocket 3.5 20:30:32 10° NNW 20:35:32 30° NE 20:38:35 19° E
Cosmos 1869 Rocket 4.2 20:35:53 36° ESE 20:36:22 37° E 20:40:29 10° NNE
SPOT 5 2.8 20:35:54 34° S 20:37:38 65° WSW 20:41:58 10° NNW
Cosmos 2173 Rocket 4.4 20:36:35 32° SE 20:38:51 46° E 20:44:40 10° NNE
USA 238 DEB 3.5 20:32:53 10° SSW 20:39:28 71° SE 20:46:21 10° NE
USA 238 3.5 20:33:01 10° SSW 20:39:34 70° SE 20:46:27 10° NE
Meteor 1-19 Rocket 4.1 20:34:25 10° NNW 20:39:53 88° E 20:42:13 36° SSE
Iridium 4 Rocket 3.6 20:41:58 38° ESE 20:42:30 40° E 20:46:28 10° NNE
Cosmos 1980 Rocket 3.0 20:38:55 10° NW 20:44:18 44° WSW 20:47:05 25° SSW
JB-3 4.4 20:40:35 10° NNE 20:44:31 55° E 20:44:51 53° ESE
Cosmos 2242 Rocket 3.8 20:41:32 10° NNW 20:45:58 67° W 20:47:28 39° SSW
Cosmos 1703 Rocket 3.4 20:41:35 10° N 20:45:58 89° WSW 20:47:06 49° S
Cosmos 1763 Rocket 3.5 20:43:57 10° NNW 20:49:19 86° ENE 20:51:08 43° SSE
Meteor 1-14 Rocket 4.2 20:46:52 31° S 20:49:49 80° E 20:55:47 10° NNE
Cosmos 1500 3.7 20:50:18 43° ENE 20:50:18 43° ENE 20:53:34 10° NNE
SL-4 R/B 1.7 20:46:14 10° WSW 20:50:05 84° NNW 20:51:34 34° ENE
Genesis I 4.3 20:46:44 10° NW 20:50:14 32° WSW 20:50:44 31° SW
Cosmos 405 Rocket 2.9 20:49:21 42° SW 20:50:24 63° WNW 20:54:07 10° N
BREEZE-M DEB (TANK) 3.2 20:47:33 10° W 20:50:53 82° N 21:02:02 10° E
ALOS 2 4.5 20:50:20 17° E 20:51:25 19° ENE 20:54:28 10° NNE
MOS 1-B Rocket 4.3 20:49:41 10° NNE 20:55:05 42° E 20:56:13 38° SE
Cosmos 2333 Rocket 4.1 20:51:01 10° N 20:55:29 22° NE 20:59:21 12° E
Cosmos 2061 Rocket 4.5 20:56:26 36° SE 20:58:08 43° E 21:03:57 10° NNE
Cosmos 1536 4.5 20:58:57 21° ENE 20:58:57 21° ENE 21:01:24 10° NE
Cosmos 1459 Rocket 4.0 20:58:05 38° SSE 21:00:30 65° E 21:06:48 10° NNE
Cosmos 1833 Rocket 4.5 20:56:42 10° WSW 21:01:40 31° NW 21:06:40 10° NNE
Cosmos 1666 4.2 21:02:40 25° ENE 21:02:40 25° ENE 21:05:01 10° NNE
Okean 1-7 3.3 21:03:20 10° NNW 21:07:37 60° W 21:08:30 48° SW
CENTAUR R/B 2.5 21:04:46 30° SSW 21:07:55 67° SE 21:14:57 10° NE
Cosmos 1867 4.1 21:02:42 10° SW 21:08:05 58° NW 21:13:29 10° NNE
Cosmos 2221 Rocket 3.9 21:04:12 10° N 21:08:34 50° ENE 21:09:01 48° E
Cosmos 1733 Rocket 4.2 21:13:55 30° E 21:13:55 30° E 21:17:24 10° NNE
Okean 3 3.4 21:09:26 10° N 21:13:43 68° ENE 21:13:59 65° ESE
FALCON 9 DEB 3.6 21:12:17 10° WSW 21:15:21 58° WNW 21:15:21 58° WNW
Cosmos 1802 Rocket 4.0 21:13:52 42° SSE 21:16:04 70° E 21:22:25 10° NNE
Thor Agena Rocket 4.0 21:11:19 10° NNE 21:16:09 42° E 21:16:25 42° ESE
Cosmos 1850 Rocket 4.0 21:14:18 37° SSW 21:16:28 85° WNW 21:21:47 10° NNE
Meteor 2-4 Rocket 3.7 21:11:29 10° NNW 21:17:13 76° W 21:18:53 46° S
SL-27 R/B 3.4 21:19:37 40° NNE 21:19:37 40° NNE 21:21:53 10° NNE
Cosmos 44 3.3 21:17:16 10° NW 21:22:09 78° NE 21:23:09 57° ESE
ATLAS 5 CENTAUR R/B 2.1 21:19:28 10° NW 21:22:15 76° NE 21:23:25 50° ESE
Cosmos 2346 Rocket 4.4 21:19:07 10° N 21:25:13 77° E 21:26:55 49° SSE
Spot 4 3.8 21:27:26 62° SE 21:28:06 73° ENE 21:32:55 10° N
USA 267 4.0 21:22:57 10° ENE 21:29:15 52° NNW 21:35:33 10° W
BREEZE-M DEB (TANK) 4.2 21:18:18 10° W 21:33:06 74° S 21:35:19 37° ESE
NOSS 3-2 (A) 3.9 21:28:30 10° WSW 21:34:16 60° NW 21:40:57 10° NE
NOSS 3-2 (C) 3.5 21:35:51 20° SW 21:40:01 79° NW 21:46:44 10° NE
Cosmos 1816 Rocket 4.4 21:33:58 10° N 21:40:18 81° E 21:41:57 52° SSE
Cosmos 841 Rocket 3.5 21:36:04 10° NNW 21:41:15 66° WSW 21:42:00 58° SSW
Cosmos 540 Rocket 3.5 21:37:33 10° NNW 21:42:42 66° WSW 21:43:22 59° SSW
SL-16 R/B 2.6 21:37:46 10° NW 21:43:14 49° WSW 21:44:17 44° SW
Lacrosse 5 2.1 21:40:39 10° WNW 21:45:31 54° SW 21:45:31 54° SW
Cosmos 2322 4.3 21:40:24 10° NNW 21:45:56 50° NE 21:47:36 38° ESE
Cosmos 1378 Rocket 4.0 21:47:27 10° N 21:51:46 51° ENE 21:51:46 51° ENE
Cosmos 1570 Rocket 4.3 21:47:19 10° NNW 21:52:29 52° WSW 21:53:10 49° SW
Tsikada Rocket 3.9 21:46:55 10° N 21:53:20 89° E 21:54:55 54° S
Cosmos 2208 Rocket 4.1 21:49:26 10° NNW 21:54:38 59° WSW 21:55:11 56° SW
Cosmos 2219 Rocket 3.1 21:49:13 10° NNW 21:54:38 42° NE 21:56:38 31° E
Cosmos 1814 Rocket 4.1 21:49:52 10° NNW 21:55:01 62° WSW 21:55:32 58° SW
Cosmos 2082 Rocket 4.4 21:50:48 10° W 21:55:16 23° NW 21:59:46 10° N
COSMOS 2487 4.5 21:58:46 21° NE 21:58:46 21° NE 22:00:12 10° NE
Cosmos 2084 Rocket 3.5 21:59:01 72° N 21:59:01 72° N 22:02:59 10° NE
Cosmos 2237 4.1 21:54:03 10° NNW 21:59:46 73° WSW 22:00:34 62° SSW
Cosmos 2333 4.5 21:54:38 10° NNW 22:00:25 63° ENE 22:01:49 48° ESE
Terra 3.9 22:00:02 15° WSW 22:01:26 16° W 22:04:27 10° NW
Cosmos 2322 Rocket 2.8 22:00:13 10° NW 22:05:31 41° WSW 22:06:13 39° SW
EO 1 Del DPAF 3.8 22:01:53 10° N 22:04:57 56° N 22:04:57 56° N
Meteor 1-11 Rocket 3.9 22:09:09 49° SW 22:10:32 65° WNW 22:16:16 10° N
Cosmos 1486 Rocket 4.3 22:11:53 50° E 22:11:53 50° E 22:16:43 10° NNE
Helios 1A 3.8 22:13:11 43° ENE 22:13:11 43° ENE 22:17:05 10° N
Cosmos 1242 Rocket 3.6 22:09:33 10° NNW 22:12:07 42° NW 22:12:07 42° NW
Cosmos 2360 Rocket 2.3 22:14:19 10° NW 22:19:53 57° WSW 22:20:19 55° SW
COSMOS 2428 3.1 22:15:27 10° NNW 22:21:07 57° ENE 22:22:37 44° ESE
ATLAS 3B R/B 2.5 22:21:12 52° SSW 22:23:00 82° SE 22:29:41 10° NE
Cosmos 489 Rocket 4.5 22:19:08 10° NNW 22:25:29 77° ENE 22:26:57 55° SE
Okean 2 4.1 22:21:32 10° N 22:25:03 46° NE 22:25:03 46° NE
ALOS 2 3.0 22:27:44 55° WNW 22:27:44 55° WNW 22:31:42 10° NNW
SL-4 R/B 4.1 22:26:19 10° WNW 22:27:13 16° WNW 22:27:13 16° WNW
Nimbus 7 Rocket 4.4 22:25:07 10° NNE 22:31:00 79° WNW 22:32:15 57° SW
Cosmos 1674 Rocket 4.2 22:29:28 10° NNW 22:33:13 46° WNW 22:33:13 46° WNW
Cosmos 2297 Rocket 4.2 22:34:20 14° E 22:34:24 14° E 22:37:10 10° ENE
Cosmos 1536 4.1 22:34:39 33° WNW 22:34:39 33° WNW 22:38:09 10° N
Cosmos 1743 3.5 22:38:17 52° N 22:38:17 52° N 22:41:21 10° N
Cosmos 2333 Rocket 2.1 22:34:44 10° NNW 22:40:33 89° WSW 22:41:19 69° SSE
Cosmos 1271 Rocket 3.7 22:38:06 10° NNW 22:40:47 42° NW 22:40:47 42° NW
Lacrosse 4 Rocket 1.9 22:45:23 58° NE 22:45:23 58° NE 22:48:49 10° NNE
NOSS 0 Rocket 4.4 22:38:37 10° NNW 22:44:47 56° NE 22:47:14 35° ESE
Cosmos 2237 Rocket 3.3 22:39:30 10° NNW 22:44:47 38° NE 22:47:32 24° ESE
Cosmos 1733 Rocket 4.4 22:50:59 29° W 22:51:19 30° WNW 22:55:13 10° N
Meteor 2-11 Rocket 4.4 22:51:23 58° SW 22:52:33 74° W 22:58:41 10° N
Cosmos 44 Rocket 3.3 22:52:06 10° NW 22:57:06 76° NE 22:57:31 71° E
CENTAUR R/B 3.9 22:53:07 10° W 22:59:06 40° NNW 23:06:06 10° NE
Cosmos 968 Rocket 3.3 22:59:01 75° WSW 22:59:19 78° WNW 23:04:29 10° NNE
Cosmos 1975 3.4 23:02:22 57° N 23:02:22 57° N 23:05:39 10° N
Resurs 1-4 Rocket 4.1 23:03:50 10° NE 23:07:07 16° E 23:08:21 15° ESE
Cosmos 1354 Rocket 3.9 23:07:09 73° SE 23:07:25 75° ESE 23:12:45 10° NNE
Cosmos 1782 Rocket 3.7 23:10:37 70° NNW 23:10:37 70° NNW 23:14:34 10° N
USA 267 4.4 23:05:31 10° ENE 23:11:36 43° N 23:17:42 10° WNW
Cosmos 1707 3.5 23:12:56 10° N 23:16:13 51° NE 23:16:13 51° NE
Cosmos 1464 Rocket 3.9 23:15:36 60° SSW 23:16:52 85° W 23:23:07 10° N
Cosmos 1842 4.4 23:14:51 10° NNW 23:17:41 38° NW 23:17:41 38° NW
Cosmos 2344 4.4 23:12:34 10° NW 23:21:48 77° NE 23:34:41 10° SE
Helios 1B rocket 2.9 23:18:18 10° NNE 23:21:48 54° ENE 23:21:48 54° ENE
CZ-4 R/B 3.8 23:17:42 10° NNE 23:22:44 83° ESE 23:23:00 78° SSE
Cosmos 2227 Rocket 3.4 23:22:42 28° ESE 23:23:18 29° ESE 23:28:06 10° NE
Meteor 1-21 4.3 23:18:55 10° NNW 23:24:41 65° W 23:25:21 60° SW
Cosmos 1674 4.4 23:25:23 10° NNE 23:28:31 25° ENE 23:28:43 25° ENE
Meteor 1-12 Rocket 4.5 23:28:42 53° SSE 23:29:53 65° E 23:35:51 10° NNE
Cosmos 1777 Rocket 4.3 23:35:45 51° SE 23:36:13 53° ESE 23:41:22 10° NNE
Nadezhda 4 Rocket 3.9 23:30:25 10° NNW 23:36:43 76° W 23:38:04 56° SSW
Cosmos 2219 Rocket 2.9 23:33:21 10° NW 23:38:19 37° W 23:38:19 37° W
MOZ.5/SAFIR/RUBIN 5/SL-8 4.4 23:39:37 43° ESE 23:40:42 52° ENE 23:45:19 10° N
Meteor 1-29 4.1 23:38:43 10° NNE 23:41:13 42° NE 23:41:13 42° NE
Cosmos 1975 Rocket 4.1 23:38:49 10° NNW 23:42:25 35° WNW 23:42:25 35° WNW
Okean 2 Rocket 3.0 23:45:22 86° NW 23:45:22 86° NW 23:49:51 10° N
Cosmos 2034 Rocket 4.0 23:43:53 54° SSW 23:45:22 74° W 23:51:43 10° N
SL-16 R/B 3.0 23:46:15 28° SE 23:49:35 58° ENE 23:55:43 10° N
ADEOS II 4.3 23:47:40 10° NE 23:50:52 16° E 23:53:32 12° ESE
Cosmos 1092 Rocket 3.9 23:44:41 10° N 23:50:59 89° ENE 23:52:44 51° S
Cosmos 1300 Rocket 3.5 23:52:28 77° NW 23:52:28 77° NW 23:56:39 10° N
GEOS 3 Rocket 3.8 23:47:17 10° NE 23:52:37 56° SE 23:53:18 53° SSE
CZ-2D R/B 3.1 23:48:14 10° NNE 23:53:21 39° E 23:54:54 32° SE
Iridium 51 4.4 23:50:21 10° N 23:54:30 76° NE 23:54:30 76° NE
Sich 1 Rocket 4.2 23:55:31 44° WNW 23:55:31 44° WNW 23:59:43 10° N
